Time,TemperatureF,DewpointF,PressureIn,WindDirection,WindDirectionDegrees,WindSpeedMPH,WindSpeedGustMPH,Humidity,HourlyPrecipIn,Conditions,Clouds,dailyrainin,SoftwareType,DateUTC
2013-10-28 00:01:00,49.4,43.8,29.93,NE,56,2.0,3.0,81,0.00,,---,0.19,VWS V14.01,2013-10-28 07:01:00,
2013-10-28 00:06:00,49.5,43.9,29.92,ENE,68,1.0,3.0,81,0.00,,---,0.00,VWS V14.01,2013-10-28 07:06:00,
2013-10-28 00:11:00,49.6,44.0,29.92,ENE,65,2.0,5.0,81,0.00,,---,0.00,VWS V14.01,2013-10-28 07:11:00,
2013-10-28 00:16:00,49.5,43.9,29.93,ENE,75,4.0,7.0,81,0.00,,---,0.00,VWS V14.01,2013-10-28 07:16:00,
2013-10-28 00:21:00,49.3,43.7,29.93,ENE,77,3.0,6.0,81,0.00,,---,0.00,VWS V14.01,2013-10-28 07:21:00,
2013-10-28 00:26:00,49.1,43.8,29.93,NE,50,3.0,4.0,82,0.00,,---,0.00,VWS V14.01,2013-10-28 07:26:00,
2013-10-28 00:31:00,48.6,43.7,29.93,ENE,65,3.0,5.0,83,0.00,,---,0.00,VWS V14.01,2013-10-28 07:31:00,
2013-10-28 00:36:00,48.2,43.9,29.93,East,90,3.0,4.0,85,0.00,,---,0.00,VWS V14.01,2013-10-28 07:36:00,
2013-10-28 00:41:00,47.7,44.0,29.93,East,94,3.0,4.0,87,0.00,,---,0.00,VWS V14.01,2013-10-28 07:41:00,
2013-10-28 00:46:00,47.4,44.0,29.93,East,91,4.0,4.0,88,0.00,,---,0.00,VWS V14.01,2013-10-28 07:46:00,
2013-10-28 00:51:00,47.2,43.8,29.93,East,95,3.0,4.0,88,0.00,,---,0.00,VWS V14.01,2013-10-28 07:51:00,
2013-10-28 00:56:00,47.2,44.1,29.93,East,94,2.0,3.0,89,0.00,,---,0.00,VWS V14.01,2013-10-28 07:56:00,
2013-10-28 01:01:00,47.3,44.2,29.93,East,89,2.0,3.0,89,0.00,,---,0.00,VWS V14.01,2013-10-28 08:01:00,
2013-10-28 01:06:00,47.2,44.1,29.94,East,92,2.0,2.0,89,0.00,,---,0.00,VWS V14.01,2013-10-28 08:06:00,
2013-10-28 01:11:00,47.2,44.1,29.94,East,95,2.0,3.0,89,0.00,,---,0.00,VWS V14.01,2013-10-28 08:11:00,
2013-10-28 01:16:00,47.2,44.1,29.94,East,95,3.0,3.0,89,0.00,,---,0.00,VWS V14.01,2013-10-28 08:16:00,
2013-10-28 01:21:00,47.2,44.1,29.94,East,93,2.0,3.0,89,0.00,,---,0.00,VWS V14.01,2013-10-28 08:21:00,
2013-10-28 01:26:00,47.0,43.9,29.93,East,91,2.0,3.0,89,0.00,,---,0.00,VWS V14.01,2013-10-28 08:26:00,
2013-10-28 01:30:00,46.9,43.8,29.93,East,82,1.0,3.0,89,0.00,,---,0.00,VWS V14.01,2013-10-28 08:30:00,
2013-10-28 01:35:00,47.2,44.1,29.93,ENE,68,3.0,4.0,89,0.00,,---,0.00,VWS V14.01,2013-10-28 08:35:00,
2013-10-28 01:40:00,48.0,44.3,29.93,East,91,1.0,4.0,87,0.00,,---,0.00,VWS V14.01,2013-10-28 08:40:00,
2013-10-28 01:45:00,48.2,44.2,29.93,East,96,3.0,3.0,86,0.00,,---,0.00,VWS V14.01,2013-10-28 08:45:00,
2013-10-28 01:50:00,48.0,44.0,29.93,East,96,2.0,3.0,86,0.00,,---,0.00,VWS V14.01,2013-10-28 08:50:00,
2013-10-28 01:55:00,47.3,43.6,29.93,East,97,2.0,3.0,87,0.00,,---,0.00,VWS V14.01,2013-10-28 08:55:00,
2013-10-28 02:00:00,47.0,43.6,29.93,East,90,1.0,3.0,88,0.00,,---,0.00,VWS V14.01,2013-10-28 09:00:00,
2013-10-28 02:05:00,46.7,43.3,29.93,East,98,1.0,2.0,88,0.00,,---,0.00,VWS V14.01,2013-10-28 09:05:00,
2013-10-28 02:10:00,46.6,43.5,29.93,NE,38,2.0,3.0,89,0.00,,---,0.00,VWS V14.01,2013-10-28 09:10:00,
2013-10-28 02:15:00,46.9,43.5,29.93,ENE,60,2.0,4.0,88,0.00,,---,0.00,VWS V14.01,2013-10-28 09:15:00,
2013-10-28 02:20:00,47.3,43.3,29.93,North,10,3.0,3.0,86,0.00,,---,0.00,VWS V14.01,2013-10-28 09:20:00,
2013-10-28 02:25:00,47.6,43.0,29.93,NNW,330,1.0,4.0,84,0.00,,---,0.00,VWS V14.01,2013-10-28 09:25:00,
2013-10-28 02:30:00,47.9,42.4,29.93,North,352,1.0,6.0,81,0.00,,---,0.00,VWS V14.01,2013-10-28 09:30:00,
2013-10-28 02:35:00,48.3,42.1,29.93,NNW,331,3.0,5.0,79,0.00,,---,0.00,VWS V14.01,2013-10-28 09:35:00,
2013-10-28 02:40:00,48.7,41.8,29.92,NW,309,3.0,8.0,77,0.00,,---,0.00,VWS V14.01,2013-10-28 09:40:00,
2013-10-28 02:45:00,49.2,41.6,29.93,NW,320,4.0,9.0,75,0.00,,---,0.00,VWS V14.01,2013-10-28 09:45:00,
2013-10-28 02:50:00,49.7,41.8,29.93,NNW,329,7.0,9.0,74,0.00,,---,0.00,VWS V14.01,2013-10-28 09:50:00,
2013-10-28 02:55:00,50.1,41.8,29.93,NNW,343,6.0,10.0,73,0.00,,---,0.00,VWS V14.01,2013-10-28 09:55:00,
2013-10-28 03:00:00,50.3,42.0,29.93,NW,321,4.0,10.0,73,0.00,,---,0.00,VWS V14.01,2013-10-28 10:00:00,
2013-10-28 03:05:00,50.4,42.1,29.93,NNW,329,7.0,10.0,73,0.00,,---,0.00,VWS V14.01,2013-10-28 10:05:00,
2013-10-28 03:10:00,50.5,42.2,29.92,NW,316,5.0,8.0,73,0.00,,---,0.00,VWS V14.01,2013-10-28 10:10:00,
2013-10-28 03:15:00,50.5,41.8,29.92,NW,325,6.0,10.0,72,0.00,,---,0.00,VWS V14.01,2013-10-28 10:15:00,
2013-10-28 03:20:00,50.8,41.8,29.92,NW,314,5.0,12.0,71,0.00,,---,0.00,VWS V14.01,2013-10-28 10:20:00,
2013-10-28 03:25:00,51.1,41.7,29.92,WNW,295,7.0,12.0,70,0.00,,---,0.00,VWS V14.01,2013-10-28 10:25:00,
2013-10-28 03:30:00,51.2,41.8,29.92,NE,53,4.0,11.0,70,0.00,,---,0.00,VWS V14.01,2013-10-28 10:30:00,
2013-10-28 03:35:00,51.2,41.4,29.92,NNW,327,3.0,11.0,69,0.00,,---,0.00,VWS V14.01,2013-10-28 10:35:00,
2013-10-28 03:40:00,51.4,41.6,29.93,NE,39,3.0,11.0,69,0.00,,---,0.00,VWS V14.01,2013-10-28 10:40:00,
2013-10-28 03:45:00,51.4,41.6,29.92,NE,56,1.0,11.0,69,0.00,,---,0.00,VWS V14.01,2013-10-28 10:45:00,
2013-10-28 03:50:00,51.3,41.5,29.92,NNW,346,5.0,10.0,69,0.00,,---,0.00,VWS V14.01,2013-10-28 10:50:00,
2013-10-28 03:55:00,51.4,41.2,29.92,East,91,4.0,10.0,68,0.00,,---,0.00,VWS V14.01,2013-10-28 10:55:00,
2013-10-28 04:00:00,51.6,41.0,29.92,North,2,4.0,10.0,67,0.00,,---,0.00,VWS V14.01,2013-10-28 11:00:00,
2013-10-28 04:05:00,51.6,41.0,29.92,North,11,4.0,10.0,67,0.00,,---,0.00,VWS V14.01,2013-10-28 11:05:00,
2013-10-28 04:10:00,51.7,40.7,29.92,NW,326,4.0,11.0,66,0.00,,---,0.00,VWS V14.01,2013-10-28 11:10:00,
2013-10-28 04:15:00,51.7,40.3,29.92,NNW,333,3.0,11.0,65,0.00,,---,0.00,VWS V14.01,2013-10-28 11:15:00,
2013-10-28 04:20:00,51.7,40.7,29.92,NNW,347,10.0,11.0,66,0.00,,---,0.00,VWS V14.01,2013-10-28 11:20:00,
2013-10-28 04:25:00,51.8,40.8,29.92,WNW,298,11.0,15.0,66,0.00,,---,0.00,VWS V14.01,2013-10-28 11:25:00,
2013-10-28 04:30:00,51.8,40.8,29.92,WNW,302,7.0,13.0,66,0.00,,---,0.00,VWS V14.01,2013-10-28 11:30:00,
2013-10-28 04:35:00,51.8,40.4,29.92,NNW,340,3.0,14.0,65,0.00,,---,0.00,VWS V14.01,2013-10-28 11:35:00,
2013-10-28 04:40:00,51.9,40.1,29.92,NW,326,13.0,14.0,64,0.00,,---,0.00,VWS V14.01,2013-10-28 11:40:00,
2013-10-28 04:45:00,52.0,39.8,29.92,NW,326,4.0,15.0,63,0.00,,---,0.00,VWS V14.01,2013-10-28 11:45:00,
2013-10-28 04:50:00,52.0,39.4,29.92,NW,307,8.0,15.0,62,0.00,,---,0.00,VWS V14.01,2013-10-28 11:50:00,
2013-10-28 04:55:00,51.9,40.1,29.92,NW,314,8.0,14.0,64,0.00,,---,0.00,VWS V14.01,2013-10-28 11:55:00,
2013-10-28 05:00:00,51.8,39.2,29.92,NNW,336,3.0,20.0,62,0.00,,---,0.00,VWS V14.01,2013-10-28 12:00:00,
2013-10-28 05:05:00,51.7,39.5,29.92,NW,325,4.0,13.0,63,0.00,,---,0.00,VWS V14.01,2013-10-28 12:05:00,
2013-10-28 05:10:00,51.6,39.8,29.92,NW,322,5.0,17.0,64,0.00,,---,0.00,VWS V14.01,2013-10-28 12:10:00,
2013-10-28 05:15:00,51.6,40.2,29.92,WNW,300,3.0,10.0,65,0.00,,---,0.00,VWS V14.01,2013-10-28 12:15:00,
2013-10-28 05:20:00,51.6,39.8,29.92,NNW,333,4.0,15.0,64,0.00,,---,0.00,VWS V14.01,2013-10-28 12:20:00,
2013-10-28 05:25:00,51.6,39.8,29.92,NNW,338,7.0,13.0,64,0.00,,---,0.00,VWS V14.01,2013-10-28 12:25:00,
2013-10-28 05:30:00,51.5,39.7,29.92,NNW,333,4.0,14.0,64,0.00,,---,0.00,VWS V14.01,2013-10-28 12:30:00,
2013-10-28 05:35:00,51.4,39.7,29.92,NNW,340,6.0,16.0,64,0.00,,---,0.00,VWS V14.01,2013-10-28 12:35:00,
2013-10-28 05:40:00,51.4,39.7,29.92,North,353,9.0,15.0,64,0.00,,---,0.00,VWS V14.01,2013-10-28 12:40:00,
2013-10-28 05:45:00,51.3,40.0,29.92,NNW,333,1.0,12.0,65,0.00,,---,0.00,VWS V14.01,2013-10-28 12:45:00,
2013-10-28 05:50:00,51.3,39.5,29.92,NE,52,4.0,12.0,64,0.00,,---,0.00,VWS V14.01,2013-10-28 12:50:00,
2013-10-28 05:55:00,51.3,39.5,29.92,North,356,6.0,12.0,64,0.00,,---,0.00,VWS V14.01,2013-10-28 12:55:00,
2013-10-28 06:00:00,51.2,39.5,29.92,ENE,62,5.0,10.0,64,0.00,,---,0.00,VWS V14.01,2013-10-28 13:00:00,
2013-10-28 06:05:00,51.2,39.5,29.92,NW,326,3.0,14.0,64,0.00,,---,0.00,VWS V14.01,2013-10-28 13:05:00,
2013-10-28 06:10:00,51.1,39.4,29.92,NNW,340,5.0,15.0,64,0.00,,---,0.00,VWS V14.01,2013-10-28 13:10:00,
2013-10-28 06:15:00,51.0,39.7,29.93,NNE,33,7.0,11.0,65,0.00,,---,0.00,VWS V14.01,2013-10-28 13:15:00,
2013-10-28 06:20:00,51.0,39.7,29.92,NNE,19,3.0,16.0,65,0.00,,---,0.00,VWS V14.01,2013-10-28 13:20:00,
2013-10-28 06:25:00,50.8,39.5,29.92,NNW,347,2.0,11.0,65,0.00,,---,0.00,VWS V14.01,2013-10-28 13:25:00,
2013-10-28 06:30:00,50.8,39.5,29.92,NNW,347,10.0,11.0,65,0.00,,---,0.00,VWS V14.01,2013-10-28 13:30:00,
2013-10-28 06:35:00,50.7,39.4,29.92,NW,323,8.0,13.0,65,0.00,,---,0.00,VWS V14.01,2013-10-28 13:35:00,
2013-10-28 06:40:00,50.7,39.8,29.92,NNW,330,4.0,14.0,66,0.00,,---,0.00,VWS V14.01,2013-10-28 13:40:00,
2013-10-28 06:45:00,50.6,39.7,29.92,NNW,327,3.0,12.0,66,0.00,,---,0.00,VWS V14.01,2013-10-28 13:45:00,
2013-10-28 06:50:00,50.5,40.0,29.92,WNW,300,4.0,15.0,67,0.00,,---,0.00,VWS V14.01,2013-10-28 13:50:00,
2013-10-28 06:55:00,50.3,39.8,29.92,North,353,4.0,18.0,67,0.00,,---,0.00,VWS V14.01,2013-10-28 13:55:00,
2013-10-28 07:00:00,50.1,40.0,29.92,NNW,330,7.0,12.0,68,0.00,,---,0.00,VWS V14.01,2013-10-28 14:00:00,
2013-10-28 07:05:00,50.0,39.5,29.92,NNW,330,5.0,11.0,67,0.00,,---,0.00,VWS V14.01,2013-10-28 14:05:00,
2013-10-28 07:10:00,50.0,39.5,29.92,NNW,344,4.0,14.0,67,0.00,,---,0.00,VWS V14.01,2013-10-28 14:10:00,
2013-10-28 07:15:00,49.9,39.0,29.92,NW,304,9.0,12.0,66,0.00,,---,0.00,VWS V14.01,2013-10-28 14:15:00,
2013-10-28 07:20:00,49.9,39.0,29.92,NW,321,2.0,11.0,66,0.00,,---,0.00,VWS V14.01,2013-10-28 14:20:00,
2013-10-28 07:25:00,49.9,39.0,29.92,NNE,12,10.0,13.0,66,0.00,,---,0.00,VWS V14.01,2013-10-28 14:25:00,
2013-10-28 07:30:00,49.9,39.0,29.92,NNW,330,1.0,13.0,66,0.00,,---,0.00,VWS V14.01,2013-10-28 14:30:00,
2013-10-28 07:35:00,49.8,39.3,29.92,NNW,331,10.0,12.0,67,0.00,,---,0.00,VWS V14.01,2013-10-28 14:35:00,
2013-10-28 07:40:00,49.8,39.3,29.92,NW,324,7.0,11.0,67,0.00,,---,0.00,VWS V14.01,2013-10-28 14:40:00,
2013-10-28 07:45:00,49.8,39.3,29.92,ESE,105,3.0,12.0,67,0.00,,---,0.00,VWS V14.01,2013-10-28 14:45:00,
2013-10-28 07:50:00,49.8,38.5,29.92,NW,305,9.0,13.0,65,0.00,,---,0.00,VWS V14.01,2013-10-28 14:50:00,
2013-10-28 07:55:00,49.8,38.5,29.92,NNW,341,4.0,13.0,65,0.00,,---,0.00,VWS V14.01,2013-10-28 14:55:00,
2013-10-28 08:00:00,49.7,38.8,29.92,NW,315,2.0,13.0,66,0.00,,---,0.00,VWS V14.01,2013-10-28 15:00:00,
2013-10-28 08:05:00,49.7,38.4,29.92,NNW,343,6.0,16.0,65,0.00,,---,0.00,VWS V14.01,2013-10-28 15:05:00,
2013-10-28 08:10:00,49.7,38.8,29.92,North,358,4.0,11.0,66,0.00,,---,0.00,VWS V14.01,2013-10-28 15:10:00,
2013-10-28 08:15:00,49.6,38.7,29.93,WNW,302,13.0,15.0,66,0.00,,---,0.00,VWS V14.01,2013-10-28 15:15:00,
2013-10-28 08:20:00,49.5,39.0,29.93,NNW,329,5.0,12.0,67,0.00,,---,0.00,VWS V14.01,2013-10-28 15:20:00,
2013-10-28 08:25:00,49.6,38.7,29.92,NW,316,7.0,15.0,66,0.00,,---,0.00,VWS V14.01,2013-10-28 15:25:00,
2013-10-28 08:30:00,49.7,38.4,29.92,NNW,342,6.0,12.0,65,0.00,,---,0.00,VWS V14.01,2013-10-28 15:30:00,
2013-10-28 08:35:00,49.7,38.4,29.93,NNW,330,8.0,12.0,65,0.00,,---,0.00,VWS V14.01,2013-10-28 15:35:00,
2013-10-28 08:40:00,49.8,38.5,29.93,NW,304,3.0,15.0,65,0.00,,---,0.00,VWS V14.01,2013-10-28 15:40:00,
2013-10-28 08:45:00,50.0,37.9,29.93,NW,311,13.0,19.0,63,0.00,,---,0.00,VWS V14.01,2013-10-28 15:45:00,
2013-10-28 08:50:00,50.0,38.3,29.93,NNW,347,2.0,10.0,64,0.00,,---,0.00,VWS V14.01,2013-10-28 15:50:00,
2013-10-28 08:55:00,50.1,38.8,29.94,NW,325,3.0,11.0,65,0.00,,---,0.00,VWS V14.01,2013-10-28 15:55:00,
2013-10-28 09:00:00,50.0,39.1,29.94,NNW,335,4.0,6.0,66,0.00,,---,0.00,VWS V14.01,2013-10-28 16:00:00,
2013-10-28 09:05:00,50.1,38.8,29.94,NNE,13,11.0,13.0,65,0.00,,---,0.00,VWS V14.01,2013-10-28 16:05:00,
2013-10-28 09:10:00,50.4,39.1,29.94,NNE,18,8.0,9.0,65,0.00,,---,0.00,VWS V14.01,2013-10-28 16:10:00,
2013-10-28 09:15:00,50.4,39.1,29.93,NW,316,3.0,10.0,65,0.00,,---,0.00,VWS V14.01,2013-10-28 16:15:00,
2013-10-28 09:20:00,50.4,38.7,29.94,East,79,7.0,8.0,64,0.00,,---,0.00,VWS V14.01,2013-10-28 16:20:00,
2013-10-28 09:25:00,50.5,38.8,29.94,NW,314,2.0,6.0,64,0.00,,---,0.00,VWS V14.01,2013-10-28 16:25:00,
2013-10-28 09:30:00,50.6,38.9,29.94,WNW,285,6.0,10.0,64,0.00,,---,0.00,VWS V14.01,2013-10-28 16:30:00,
2013-10-28 09:35:00,50.8,38.7,29.94,NNW,328,2.0,10.0,63,0.00,,---,0.00,VWS V14.01,2013-10-28 16:35:00,
2013-10-28 09:40:00,51.0,38.9,29.93,NNW,329,2.0,7.0,63,0.00,,---,0.00,VWS V14.01,2013-10-28 16:40:00,
2013-10-28 09:45:00,51.1,38.1,29.93,NW,314,5.0,12.0,61,0.00,,---,0.00,VWS V14.01,2013-10-28 16:45:00,
2013-10-28 09:50:00,51.2,38.2,29.93,NW,315,3.0,11.0,61,0.00,,---,0.00,VWS V14.01,2013-10-28 16:50:00,
2013-10-28 09:55:00,51.3,38.3,29.93,NW,325,2.0,10.0,61,0.00,,---,0.00,VWS V14.01,2013-10-28 16:55:00,
2013-10-28 10:00:00,51.4,38.4,29.93,North,352,4.0,13.0,61,0.00,,---,0.00,VWS V14.01,2013-10-28 17:00:00,
2013-10-28 10:05:00,51.6,38.6,29.93,NW,325,1.0,8.0,61,0.00,,---,0.00,VWS V14.01,2013-10-28 17:05:00,
2013-10-28 10:10:00,51.6,37.8,29.93,NE,48,8.0,14.0,59,0.00,,---,0.00,VWS V14.01,2013-10-28 17:10:00,
2013-10-28 10:15:00,51.6,38.2,29.93,NNW,339,11.0,12.0,60,0.00,,---,0.00,VWS V14.01,2013-10-28 17:15:00,
2013-10-28 10:20:00,51.8,38.4,29.93,North,359,6.0,9.0,60,0.00,,---,0.00,VWS V14.01,2013-10-28 17:20:00,
2013-10-28 10:25:00,51.9,38.0,29.93,WNW,289,14.0,17.0,59,0.00,,---,0.00,VWS V14.01,2013-10-28 17:25:00,
2013-10-28 10:30:00,52.0,38.1,29.93,NW,319,13.0,13.0,59,0.00,,---,0.00,VWS V14.01,2013-10-28 17:30:00,
2013-10-28 10:35:00,52.1,37.8,29.93,NW,315,5.0,11.0,58,0.00,,---,0.00,VWS V14.01,2013-10-28 17:35:00,
2013-10-28 10:40:00,52.2,37.9,29.93,WNW,293,3.0,11.0,58,0.00,,---,0.00,VWS V14.01,2013-10-28 17:40:00,
2013-10-28 10:45:00,52.4,38.1,29.93,ENE,77,3.0,13.0,58,0.00,,---,0.00,VWS V14.01,2013-10-28 17:45:00,
2013-10-28 10:50:00,52.6,38.3,29.92,East,92,5.0,9.0,58,0.00,,---,0.00,VWS V14.01,2013-10-28 17:50:00,
2013-10-28 10:55:00,52.8,38.0,29.92,NW,305,6.0,13.0,57,0.00,,---,0.00,VWS V14.01,2013-10-28 17:55:00,
2013-10-28 11:00:00,52.8,37.5,29.92,WNW,299,7.0,13.0,56,0.00,,---,0.00,VWS V14.01,2013-10-28 18:00:00,
2013-10-28 11:05:00,52.8,37.5,29.92,NW,316,7.0,20.0,56,0.00,,---,0.00,VWS V14.01,2013-10-28 18:05:00,
2013-10-28 11:10:00,52.8,37.5,29.92,NW,320,15.0,17.0,56,0.00,,---,0.00,VWS V14.01,2013-10-28 18:10:00,
2013-10-28 11:15:00,52.8,38.0,29.92,NW,307,6.0,17.0,57,0.00,,---,0.00,VWS V14.01,2013-10-28 18:15:00,
2013-10-28 11:20:00,52.9,38.1,29.92,ENE,75,6.0,17.0,57,0.00,,---,0.00,VWS V14.01,2013-10-28 18:20:00,
2013-10-28 11:25:00,53.0,37.7,29.93,WNW,296,4.0,20.0,56,0.00,,---,0.00,VWS V14.01,2013-10-28 18:25:00,
2013-10-28 11:30:00,53.0,38.2,29.93,NW,319,16.0,18.0,57,0.00,,---,0.00,VWS V14.01,2013-10-28 18:30:00,
2013-10-28 11:35:00,53.1,38.7,29.92,NW,307,5.0,18.0,58,0.00,,---,0.00,VWS V14.01,2013-10-28 18:35:00,
2013-10-28 11:40:00,53.1,38.3,29.92,NW,307,18.0,18.0,57,0.00,,---,0.00,VWS V14.01,2013-10-28 18:40:00,
2013-10-28 11:45:00,53.1,37.8,29.92,NNW,335,10.0,16.0,56,0.00,,---,0.00,VWS V14.01,2013-10-28 18:45:00,
2013-10-28 11:50:00,53.3,38.0,29.92,WNW,288,6.0,14.0,56,0.00,,---,0.00,VWS V14.01,2013-10-28 18:50:00,
2013-10-28 11:55:00,53.3,38.0,29.92,NNW,332,10.0,22.0,56,0.00,,---,0.00,VWS V14.01,2013-10-28 18:55:00,
2013-10-28 12:00:00,53.3,37.6,29.92,NW,305,10.0,18.0,55,0.00,,---,0.00,VWS V14.01,2013-10-28 19:00:00,
2013-10-28 12:05:00,53.3,38.5,29.92,NW,313,19.0,19.0,57,0.00,,---,0.00,VWS V14.01,2013-10-28 19:05:00,
2013-10-28 12:10:00,53.2,37.9,29.92,WNW,285,6.0,19.0,56,0.00,,---,0.00,VWS V14.01,2013-10-28 19:10:00,
2013-10-28 12:15:00,53.3,38.0,29.92,NW,321,3.0,21.0,56,0.00,,---,0.00,VWS V14.01,2013-10-28 19:15:00,
2013-10-28 12:20:00,53.6,37.4,29.92,NNW,329,8.0,14.0,54,0.00,,---,0.00,VWS V14.01,2013-10-28 19:20:00,
2013-10-28 12:25:00,53.6,37.8,29.92,WNW,303,6.0,15.0,55,0.00,,---,0.00,VWS V14.01,2013-10-28 19:25:00,
2013-10-28 12:30:00,53.8,37.6,29.92,NW,317,12.0,15.0,54,0.00,,---,0.00,VWS V14.01,2013-10-28 19:30:00,
2013-10-28 12:35:00,53.9,37.7,29.92,NW,308,17.0,19.0,54,0.00,,---,0.00,VWS V14.01,2013-10-28 19:35:00,
2013-10-28 12:40:00,54.1,37.8,29.91,NW,307,11.0,16.0,54,0.00,,---,0.00,VWS V14.01,2013-10-28 19:40:00,
2013-10-28 12:45:00,54.0,38.2,29.91,NNW,340,10.0,21.0,55,0.00,,---,0.00,VWS V14.01,2013-10-28 19:45:00,
2013-10-28 12:50:00,54.0,37.8,29.91,WNW,303,14.0,25.0,54,0.00,,---,0.00,VWS V14.01,2013-10-28 19:50:00,
2013-10-28 12:55:00,54.1,36.9,29.91,West,278,13.0,18.0,52,0.00,,---,0.00,VWS V14.01,2013-10-28 19:55:00,
2013-10-28 13:00:00,54.1,37.8,29.91,NNW,340,11.0,18.0,54,0.00,,---,0.00,VWS V14.01,2013-10-28 20:00:00,
2013-10-28 13:05:00,54.2,37.9,29.91,WNW,302,8.0,24.0,54,0.00,,---,0.00,VWS V14.01,2013-10-28 20:05:00,
2013-10-28 13:10:00,54.3,38.0,29.91,North,354,10.0,18.0,54,0.00,,---,0.00,VWS V14.01,2013-10-28 20:10:00,
2013-10-28 13:15:00,54.5,36.8,29.91,NW,321,11.0,17.0,51,0.00,,---,0.00,VWS V14.01,2013-10-28 20:15:00,
2013-10-28 13:20:00,54.4,37.2,29.91,NW,307,16.0,18.0,52,0.00,,---,0.00,VWS V14.01,2013-10-28 20:20:00,
2013-10-28 13:25:00,54.4,37.2,29.91,WNW,298,11.0,16.0,52,0.00,,---,0.00,VWS V14.01,2013-10-28 20:25:00,
2013-10-28 13:30:00,54.5,37.7,29.90,NW,317,10.0,15.0,53,0.00,,---,0.00,VWS V14.01,2013-10-28 20:30:00,
2013-10-28 13:35:00,54.5,37.7,29.90,NNW,334,8.0,14.0,53,0.00,,---,0.00,VWS V14.01,2013-10-28 20:35:00,
2013-10-28 13:40:00,54.7,37.4,29.90,West,269,10.0,17.0,52,0.00,,---,0.00,VWS V14.01,2013-10-28 20:40:00,
2013-10-28 13:45:00,54.7,37.4,29.90,NW,306,8.0,17.0,52,0.00,,---,0.00,VWS V14.01,2013-10-28 20:45:00,
2013-10-28 13:50:00,54.7,37.4,29.90,NW,321,5.0,18.0,52,0.00,,---,0.00,VWS V14.01,2013-10-28 20:50:00,
2013-10-28 13:55:00,54.9,37.1,29.90,NW,320,4.0,10.0,51,0.00,,---,0.00,VWS V14.01,2013-10-28 20:55:00,
2013-10-28 14:00:00,54.8,36.0,29.90,NNW,333,16.0,22.0,49,0.00,,---,0.00,VWS V14.01,2013-10-28 21:00:00,
2013-10-28 14:05:00,54.5,35.8,29.90,NW,307,9.0,19.0,49,0.00,,---,0.00,VWS V14.01,2013-10-28 21:05:00,
2013-10-28 14:10:00,54.5,36.8,29.90,NNW,332,5.0,14.0,51,0.00,,---,0.00,VWS V14.01,2013-10-28 21:10:00,
2013-10-28 14:15:00,54.6,35.8,29.89,NW,316,15.0,19.0,49,0.00,,---,0.00,VWS V14.01,2013-10-28 21:15:00,
2013-10-28 14:20:00,54.6,36.8,29.89,NW,313,11.0,21.0,51,0.00,,---,0.00,VWS V14.01,2013-10-28 21:20:00,
2013-10-28 14:25:00,54.5,36.8,29.89,NW,313,6.0,19.0,51,0.00,,---,0.00,VWS V14.01,2013-10-28 21:25:00,
2013-10-28 14:30:00,54.8,37.0,29.89,NW,316,11.0,16.0,51,0.00,,---,0.00,VWS V14.01,2013-10-28 21:30:00,
2013-10-28 14:35:00,54.8,37.0,29.89,NW,323,8.0,17.0,51,0.00,,---,0.00,VWS V14.01,2013-10-28 21:35:00,
2013-10-28 14:40:00,54.7,36.4,29.90,WNW,295,7.0,19.0,50,0.00,,---,0.00,VWS V14.01,2013-10-28 21:40:00,
2013-10-28 14:45:00,54.8,36.0,29.90,WNW,292,3.0,16.0,49,0.00,,---,0.00,VWS V14.01,2013-10-28 21:45:00,
2013-10-28 14:50:00,55.0,36.2,29.90,NNW,330,10.0,13.0,49,0.00,,---,0.00,VWS V14.01,2013-10-28 21:50:00,
2013-10-28 14:55:00,55.2,35.3,29.90,WNW,297,12.0,18.0,47,0.00,,---,0.00,VWS V14.01,2013-10-28 21:55:00,
2013-10-28 15:00:00,55.0,35.7,29.89,NW,307,8.0,18.0,48,0.00,,---,0.00,VWS V14.01,2013-10-28 22:00:00,
2013-10-28 15:05:00,55.1,35.8,29.89,WNW,295,10.0,13.0,48,0.00,,---,0.00,VWS V14.01,2013-10-28 22:05:00,
2013-10-28 15:10:00,55.0,35.2,29.89,West,278,3.0,21.0,47,0.00,,---,0.00,VWS V14.01,2013-10-28 22:10:00,
2013-10-28 15:14:00,55.2,35.9,29.89,NNW,329,4.0,17.0,48,0.00,,---,0.00,VWS V14.01,2013-10-28 22:14:00,
2013-10-28 15:19:00,55.2,35.3,29.89,NW,314,14.0,23.0,47,0.00,,---,0.00,VWS V14.01,2013-10-28 22:19:00,
2013-10-28 15:24:00,55.1,35.2,29.89,NNW,327,6.0,21.0,47,0.00,,---,0.00,VWS V14.01,2013-10-28 22:24:00,
2013-10-28 15:29:00,55.3,34.9,29.89,WNW,302,14.0,23.0,46,0.00,,---,0.00,VWS V14.01,2013-10-28 22:29:00,
2013-10-28 15:34:00,55.3,34.3,29.88,NW,316,8.0,19.0,45,0.00,,---,0.00,VWS V14.01,2013-10-28 22:34:00,
2013-10-28 15:39:00,55.3,34.9,29.89,NW,310,11.0,19.0,46,0.00,,---,0.00,VWS V14.01,2013-10-28 22:39:00,
2013-10-28 15:44:00,55.3,34.9,29.89,NW,317,7.0,22.0,46,0.00,,---,0.00,VWS V14.01,2013-10-28 22:44:00,
2013-10-28 15:49:00,55.2,35.3,29.89,WNW,300,9.0,22.0,47,0.00,,---,0.00,VWS V14.01,2013-10-28 22:49:00,
2013-10-28 15:54:00,55.2,34.8,29.89,West,274,10.0,19.0,46,0.00,,---,0.00,VWS V14.01,2013-10-28 22:54:00,
2013-10-28 15:59:00,55.1,34.7,29.89,NNW,347,9.0,21.0,46,0.00,,---,0.00,VWS V14.01,2013-10-28 22:59:00,
2013-10-28 16:04:00,55.1,34.7,29.89,WNW,286,7.0,23.0,46,0.00,,---,0.00,VWS V14.01,2013-10-28 23:04:00,
2013-10-28 16:09:00,55.2,34.8,29.89,West,265,10.0,16.0,46,0.00,,---,0.00,VWS V14.01,2013-10-28 23:09:00,
2013-10-28 16:14:00,55.1,34.7,29.89,WNW,295,6.0,18.0,46,0.00,,---,0.00,VWS V14.01,2013-10-28 23:14:00,
2013-10-28 16:19:00,55.1,35.2,29.89,WNW,297,8.0,18.0,47,0.00,,---,0.00,VWS V14.01,2013-10-28 23:19:00,
2013-10-28 16:24:00,55.0,35.2,29.89,NW,306,7.0,21.0,47,0.00,,---,0.00,VWS V14.01,2013-10-28 23:24:00,
2013-10-28 16:29:00,54.9,34.5,29.90,NNW,333,6.0,23.0,46,0.00,,---,0.00,VWS V14.01,2013-10-28 23:29:00,
2013-10-28 16:34:00,54.9,35.1,29.90,WNW,283,4.0,16.0,47,0.00,,---,0.00,VWS V14.01,2013-10-28 23:34:00,
2013-10-28 16:39:00,54.9,34.0,29.90,West,278,6.0,21.0,45,0.00,,---,0.00,VWS V14.01,2013-10-28 23:39:00,
2013-10-28 16:44:00,54.8,34.4,29.89,NW,306,9.0,20.0,46,0.00,,---,0.00,VWS V14.01,2013-10-28 23:44:00,
2013-10-28 16:49:00,54.8,34.4,29.89,NNW,328,10.0,15.0,46,0.00,,---,0.00,VWS V14.01,2013-10-28 23:49:00,
2013-10-28 16:54:00,54.7,34.3,29.89,NNW,330,14.0,21.0,46,0.00,,---,0.00,VWS V14.01,2013-10-28 23:54:00,
2013-10-28 16:59:00,54.6,34.2,29.89,NE,41,7.0,18.0,46,0.00,,---,0.00,VWS V14.01,2013-10-28 23:59:00,
2013-10-28 17:04:00,54.6,34.8,29.89,NNW,345,11.0,21.0,47,0.00,,---,0.00,VWS V14.01,2013-10-29 00:04:00,
2013-10-28 17:09:00,54.5,34.7,29.89,WNW,288,4.0,20.0,47,0.00,,---,0.00,VWS V14.01,2013-10-29 00:09:00,
2013-10-28 17:14:00,54.4,34.6,29.89,NW,317,8.0,19.0,47,0.00,,---,0.00,VWS V14.01,2013-10-29 00:14:00,
2013-10-28 17:19:00,54.3,34.5,29.89,NNW,345,9.0,18.0,47,0.00,,---,0.00,VWS V14.01,2013-10-29 00:19:00,
2013-10-28 17:24:00,54.3,35.0,29.89,WNW,282,4.0,18.0,48,0.00,,---,0.00,VWS V14.01,2013-10-29 00:24:00,
2013-10-28 17:29:00,54.2,35.0,29.89,NW,306,8.0,18.0,48,0.00,,---,0.00,VWS V14.01,2013-10-29 00:29:00,
2013-10-28 17:34:00,53.8,35.1,29.90,NW,323,5.0,18.0,49,0.00,,---,0.00,VWS V14.01,2013-10-29 00:34:00,
2013-10-28 17:39:00,53.6,35.4,29.90,NNW,328,12.0,12.0,50,0.00,,---,0.00,VWS V14.01,2013-10-29 00:39:00,
2013-10-28 17:44:00,53.4,35.2,29.90,NNW,341,7.0,16.0,50,0.00,,---,0.00,VWS V14.01,2013-10-29 00:44:00,
2013-10-28 17:49:00,53.2,35.1,29.90,North,349,8.0,17.0,50,0.00,,---,0.00,VWS V14.01,2013-10-29 00:49:00,
2013-10-28 17:54:00,53.0,34.9,29.90,NNW,327,9.0,16.0,50,0.00,,---,0.00,VWS V14.01,2013-10-29 00:54:00,
2013-10-28 17:59:00,52.8,35.2,29.90,NW,321,4.0,12.0,51,0.00,,---,0.00,VWS V14.01,2013-10-29 00:59:00,
2013-10-28 18:04:00,52.6,35.0,29.90,NNW,333,8.0,13.0,51,0.00,,---,0.00,VWS V14.01,2013-10-29 01:04:00,
2013-10-28 18:09:00,52.5,35.4,29.90,NW,316,9.0,10.0,52,0.00,,---,0.00,VWS V14.01,2013-10-29 01:09:00,
2013-10-28 18:14:00,52.5,34.9,29.90,NNW,342,10.0,13.0,51,0.00,,---,0.00,VWS V14.01,2013-10-29 01:14:00,
2013-10-28 18:19:00,52.5,35.4,29.90,NNE,20,3.0,11.0,52,0.00,,---,0.00,VWS V14.01,2013-10-29 01:19:00,
2013-10-28 18:24:00,52.5,34.9,29.90,NNW,338,3.0,13.0,51,0.00,,---,0.00,VWS V14.01,2013-10-29 01:24:00,
2013-10-28 18:29:00,52.5,34.4,29.90,NW,319,3.0,14.0,50,0.00,,---,0.00,VWS V14.01,2013-10-29 01:29:00,
2013-10-28 18:34:00,52.5,34.9,29.90,NE,48,9.0,11.0,51,0.00,,---,0.00,VWS V14.01,2013-10-29 01:34:00,
2013-10-28 18:39:00,52.4,34.8,29.90,NW,325,5.0,13.0,51,0.00,,---,0.00,VWS V14.01,2013-10-29 01:39:00,
2013-10-28 18:44:00,52.3,34.7,29.90,ESE,115,2.0,11.0,51,0.00,,---,0.00,VWS V14.01,2013-10-29 01:44:00,
2013-10-28 18:49:00,52.2,34.6,29.90,West,274,5.0,14.0,51,0.00,,---,0.00,VWS V14.01,2013-10-29 01:49:00,
2013-10-28 18:54:00,52.3,34.7,29.90,ENE,58,3.0,7.0,51,0.00,,---,0.00,VWS V14.01,2013-10-29 01:54:00,
2013-10-28 18:59:00,52.2,34.6,29.91,West,270,5.0,8.0,51,0.00,,---,0.00,VWS V14.01,2013-10-29 01:59:00,
2013-10-28 19:04:00,52.1,35.0,29.91,North,352,9.0,9.0,52,0.00,,---,0.00,VWS V14.01,2013-10-29 02:04:00,
2013-10-28 19:09:00,52.0,34.9,29.92,NW,318,4.0,6.0,52,0.00,,---,0.00,VWS V14.01,2013-10-29 02:09:00,
2013-10-28 19:14:00,51.9,34.8,29.91,East,98,1.0,5.0,52,0.00,,---,0.00,VWS V14.01,2013-10-29 02:14:00,
2013-10-28 19:19:00,51.9,34.8,29.92,NNE,27,11.0,11.0,52,0.00,,---,0.00,VWS V14.01,2013-10-29 02:19:00,
2013-10-28 19:24:00,52.0,34.9,29.91,North,354,2.0,9.0,52,0.00,,---,0.00,VWS V14.01,2013-10-29 02:24:00,
2013-10-28 19:29:00,51.9,35.3,29.92,East,84,0.0,4.0,53,0.00,,---,0.00,VWS V14.01,2013-10-29 02:29:00,
2013-10-28 19:34:00,51.7,34.2,29.92,NNW,333,4.0,9.0,51,0.00,,---,0.00,VWS V14.01,2013-10-29 02:34:00,
2013-10-28 19:39:00,51.7,34.2,29.92,NNW,330,2.0,4.0,51,0.00,,---,0.00,VWS V14.01,2013-10-29 02:39:00,
2013-10-28 19:44:00,51.6,34.1,29.92,East,86,2.0,4.0,51,0.00,,---,0.00,VWS V14.01,2013-10-29 02:44:00,
2013-10-28 19:49:00,51.5,34.0,29.92,NNE,32,2.0,8.0,51,0.00,,---,0.00,VWS V14.01,2013-10-29 02:49:00,
2013-10-28 19:54:00,51.5,34.0,29.92,NNW,330,2.0,4.0,51,0.00,,---,0.00,VWS V14.01,2013-10-29 02:54:00,
2013-10-28 19:59:00,51.3,33.8,29.92,ENE,64,3.0,9.0,51,0.00,,---,0.00,VWS V14.01,2013-10-29 02:59:00,
2013-10-28 20:04:00,51.4,33.9,29.92,ESE,105,0.0,5.0,51,0.00,,---,0.00,VWS V14.01,2013-10-29 03:04:00,
2013-10-28 20:09:00,51.4,33.9,29.92,NW,319,4.0,5.0,51,0.00,,---,0.00,VWS V14.01,2013-10-29 03:09:00,
2013-10-28 20:14:00,51.4,33.9,29.92,ENE,67,2.0,4.0,51,0.00,,---,0.00,VWS V14.01,2013-10-29 03:14:00,
2013-10-28 20:19:00,51.4,33.9,29.92,NNW,345,2.0,6.0,51,0.00,,---,0.00,VWS V14.01,2013-10-29 03:19:00,
2013-10-28 20:24:00,51.3,33.8,29.92,NW,326,2.0,5.0,51,0.00,,---,0.00,VWS V14.01,2013-10-29 03:24:00,
2013-10-28 20:29:00,51.2,33.7,29.93,East,81,4.0,6.0,51,0.00,,---,0.00,VWS V14.01,2013-10-29 03:29:00,
2013-10-28 20:34:00,51.2,34.2,29.92,East,91,2.0,3.0,52,0.00,,---,0.00,VWS V14.01,2013-10-29 03:34:00,
2013-10-28 20:39:00,51.1,34.1,29.92,NNW,327,1.0,6.0,52,0.00,,---,0.00,VWS V14.01,2013-10-29 03:39:00,
2013-10-28 20:44:00,51.2,33.7,29.93,NW,319,2.0,5.0,51,0.00,,---,0.00,VWS V14.01,2013-10-29 03:44:00,
2013-10-28 20:49:00,51.2,34.2,29.93,NE,50,3.0,8.0,52,0.00,,---,0.00,VWS V14.01,2013-10-29 03:49:00,
2013-10-28 20:54:00,51.2,34.2,29.93,ENE,69,0.0,6.0,52,0.00,,---,0.00,VWS V14.01,2013-10-29 03:54:00,
2013-10-28 20:59:00,51.2,33.7,29.93,NNE,27,3.0,8.0,51,0.00,,---,0.00,VWS V14.01,2013-10-29 03:59:00,
2013-10-28 21:01:00,51.2,33.7,29.93,NNW,332,0.0,10.0,51,0.00,,---,0.00,VWS V14.01,2013-10-29 04:01:00,
2013-10-28 21:06:00,51.3,33.3,29.93,NW,311,1.0,10.0,50,0.00,,---,0.00,VWS V14.01,2013-10-29 04:06:00,
2013-10-28 21:11:00,51.2,33.2,29.93,NE,42,0.0,7.0,50,0.00,,---,0.00,VWS V14.01,2013-10-29 04:11:00,
2013-10-28 21:16:00,51.2,33.2,29.94,ENE,61,1.0,6.0,50,0.00,,---,0.00,VWS V14.01,2013-10-29 04:16:00,
2013-10-28 21:21:00,51.2,33.7,29.94,East,86,4.0,6.0,51,0.00,,---,0.00,VWS V14.01,2013-10-29 04:21:00,
2013-10-28 21:26:00,51.1,33.6,29.94,North,7,1.0,9.0,51,0.00,,---,0.00,VWS V14.01,2013-10-29 04:26:00,
2013-10-28 21:31:00,51.0,33.5,29.94,NNE,16,2.0,7.0,51,0.00,,---,0.00,VWS V14.01,2013-10-29 04:31:00,
2013-10-28 21:36:00,50.8,33.8,29.94,NW,314,2.0,5.0,52,0.00,,---,0.00,VWS V14.01,2013-10-29 04:36:00,
2013-10-28 21:41:00,50.7,33.7,29.94,East,86,1.0,6.0,52,0.00,,---,0.00,VWS V14.01,2013-10-29 04:41:00,
2013-10-28 21:46:00,50.6,34.1,29.94,NNW,335,1.0,6.0,53,0.00,,---,0.00,VWS V14.01,2013-10-29 04:46:00,
2013-10-28 21:51:00,50.5,34.0,29.94,ENE,63,1.0,4.0,53,0.00,,---,0.00,VWS V14.01,2013-10-29 04:51:00,
2013-10-28 21:56:00,50.4,34.4,29.94,East,84,0.0,6.0,54,0.00,,---,0.00,VWS V14.01,2013-10-29 04:56:00,
2013-10-28 22:01:00,50.2,34.7,29.94,East,96,2.0,3.0,55,0.00,,---,0.00,VWS V14.01,2013-10-29 05:01:00,
2013-10-28 22:06:00,50.0,35.4,29.95,ENE,65,1.0,6.0,57,0.00,,---,0.00,VWS V14.01,2013-10-29 05:06:00,
2013-10-28 22:11:00,49.8,35.6,29.94,East,90,2.0,5.0,58,0.00,,---,0.00,VWS V14.01,2013-10-29 05:11:00,
2013-10-28 22:16:00,49.5,35.8,29.94,East,90,2.0,4.0,59,0.00,,---,0.00,VWS V14.01,2013-10-29 05:16:00,
2013-10-28 22:21:00,49.2,35.9,29.94,East,91,1.0,3.0,60,0.00,,---,0.00,VWS V14.01,2013-10-29 05:21:00,
2013-10-28 22:26:00,48.9,36.5,29.95,East,97,1.0,2.0,62,0.00,,---,0.00,VWS V14.01,2013-10-29 05:26:00,
2013-10-28 22:31:00,48.5,36.5,29.95,East,98,3.0,3.0,63,0.00,,---,0.00,VWS V14.01,2013-10-29 05:31:00,
2013-10-28 22:36:00,48.3,36.3,29.95,East,91,3.0,4.0,63,0.00,,---,0.00,VWS V14.01,2013-10-29 05:36:00,
2013-10-28 22:41:00,48.0,36.8,29.94,East,91,3.0,4.0,65,0.00,,---,0.00,VWS V14.01,2013-10-29 05:41:00,
2013-10-28 22:46:00,47.7,36.9,29.94,East,98,2.0,5.0,66,0.00,,---,0.00,VWS V14.01,2013-10-29 05:46:00,
2013-10-28 22:51:00,47.7,36.5,29.94,East,96,1.0,4.0,65,0.00,,---,0.00,VWS V14.01,2013-10-29 05:51:00,
2013-10-28 22:56:00,47.5,35.5,29.94,East,95,4.0,5.0,63,0.00,,---,0.00,VWS V14.01,2013-10-29 05:56:00,
2013-10-28 23:01:00,47.5,35.9,29.94,East,96,4.0,5.0,64,0.00,,---,0.00,VWS V14.01,2013-10-29 06:01:00,
2013-10-28 23:06:00,47.3,35.8,29.94,East,94,4.0,5.0,64,0.00,,---,0.00,VWS V14.01,2013-10-29 06:06:00,
2013-10-28 23:11:00,47.7,34.9,29.94,East,96,4.0,5.0,61,0.00,,---,0.00,VWS V14.01,2013-10-29 06:11:00,
2013-10-28 23:16:00,48.0,34.8,29.94,East,91,2.0,4.0,60,0.00,,---,0.00,VWS V14.01,2013-10-29 06:16:00,
2013-10-28 23:21:00,47.9,34.7,29.94,East,94,1.0,2.0,60,0.00,,---,0.00,VWS V14.01,2013-10-29 06:21:00,
2013-10-28 23:26:00,47.7,34.5,29.94,East,98,3.0,3.0,60,0.00,,---,0.00,VWS V14.01,2013-10-29 06:26:00,
2013-10-28 23:31:00,47.8,34.6,29.94,East,96,3.0,3.0,60,0.00,,---,0.00,VWS V14.01,2013-10-29 06:31:00,
2013-10-28 23:36:00,47.5,34.7,29.94,East,94,3.0,3.0,61,0.00,,---,0.00,VWS V14.01,2013-10-29 06:36:00,
2013-10-28 23:41:00,47.5,34.7,29.94,East,96,4.0,5.0,61,0.00,,---,0.00,VWS V14.01,2013-10-29 06:41:00,
2013-10-28 23:46:00,47.6,34.8,29.94,East,94,3.0,4.0,61,0.00,,---,0.00,VWS V14.01,2013-10-29 06:46:00,
2013-10-28 23:51:00,47.5,35.1,29.94,East,94,3.0,4.0,62,0.00,,---,0.00,VWS V14.01,2013-10-29 06:51:00,
2013-10-28 23:56:00,47.4,35.5,29.95,East,96,3.0,4.0,63,0.00,,---,0.00,VWS V14.01,2013-10-29 06:56:00,